Location: Congrier
(47.8099°N, 1.1170°W)
Time: 00:51:24
(UTC+00:00)

Cosmos 1455 Rocket - Pass Details

Date: 28 January 2023
Orbit: 603 x 628 km, 82.5° (Epoch: 21 March)

Event Time Altitude Azimuth Distance (km) Brightness Sun altitude
Rises 17:32:42 0° 351° (N) 2,898 6.4 -6.1°
Reaches altitude 10° 17:34:57 10° 352° (N) 1,984 5.5 -6.5°
Maximum altitude 17:39:21 83° 79° (E) 622 3.0 -7.2°
Drops below altitude 10° 17:43:41 10° 169° (S) 1,953 5.7 -7.9°
Sets 17:45:52 0° 170° (S) 2,849 6.6 -8.2°
